Torna al catalogo

DELTA 1 DEB

AttivoSSO
NORAD 14465·DEBRIS·🇺🇸 United States

Lanciato Mar 5, 1978 da Vandenberg Space Force Base

Loading…

Prossimi Passaggi (prossime 24 ore)

TLE

AggiornatoSource: Space-Track

Epoca: Sep 14, 2026, 09:04 UTC

1 14465U 78026GF  26257.37843534  .00001373  00000-0  65771-3 0  9995
2 14465  98.7801  54.7466 0103337 340.0312  48.9404 14.17902245231502

Traccia DELTA 1 DEB in tempo reale con AllMySat

Download on the App Store